When you browse on this site, cookies collect data to enhance your experience and personalize the content and advertising you see.
Visit our Privacy Policy to learn more. By continuing to use the site, you agree to this use of cookies and data.

Hourly Weather Mingachevir

Today, 4 July, Saturday

Time Temperature Precipitation Wind Pressure Humidity
00:00 +26°C° 0 mm 2 mps 752 mmHg 44%
01:00 +25°C° 0 mm 2 mps 752 mmHg 46%
02:00 +25°C° 0 mm 2 mps 752 mmHg 47%
03:00 +24°C° 0 mm 2 mps 752 mmHg 48%
04:00 +25°C° 0 mm 2 mps 752 mmHg 48%
05:00 +25°C° 0 mm 2 mps 752 mmHg 47%
06:00 +26°C° 0 mm 2 mps 752 mmHg 47%
07:00 +28°C° 0 mm 2 mps 752 mmHg 40%
08:00 +30°C° 0 mm 2 mps 752 mmHg 33%
09:00 +33°C° 0 mm 3 mps 752 mmHg 27%
10:00 +34°C° 0 mm 3 mps 751 mmHg 26%
11:00 +36°C° 0 mm 4 mps 751 mmHg 24%
12:00 +37°C° 0 mm 4 mps 751 mmHg 23%
13:00 +37°C° 0 mm 4 mps 750 mmHg 23%
14:00 +38°C° 0 mm 4 mps 749 mmHg 23%
15:00 +38°C° 0 mm 4 mps 749 mmHg 22%
16:00 +38°C° 0 mm 4 mps 749 mmHg 24%
17:00 +37°C° 0 mm 4 mps 749 mmHg 25%
18:00 +37°C° 0 mm 4 mps 749 mmHg 26%
19:00 +35°C° 0 mm 4 mps 750 mmHg 27%
20:00 +33°C° 0 mm 5 mps 750 mmHg 28%
21:00 +30°C° 0 mm 5 mps 750 mmHg 28%
22:00 +29°C° 0 mm 4 mps 750 mmHg 31%
23:00 +28°C° 0 mm 3 mps 750 mmHg 33%

Tomorrow, 5 July, Sunday

Time Temperature Precipitation Wind Pressure Humidity
00:00 +26°C° 0 mm 3 mps 750 mmHg 36%
01:00 +26°C° 0 mm 3 mps 750 mmHg 37%
02:00 +26°C° 0 mm 2 mps 750 mmHg 39%
03:00 +25°C° 0 mm 2 mps 750 mmHg 40%
04:00 +26°C° 0 mm 2 mps 750 mmHg 40%
05:00 +26°C° 0 mm 2 mps 750 mmHg 39%
06:00 +27°C° 0 mm 2 mps 750 mmHg 39%
07:00 +29°C° 0 mm 2 mps 750 mmHg 33%
08:00 +31°C° 0 mm 3 mps 750 mmHg 26%
09:00 +34°C° 0 mm 3 mps 749 mmHg 20%
10:00 +36°C° 0 mm 4 mps 749 mmHg 19%
11:00 +37°C° 0 mm 4 mps 749 mmHg 19%
12:00 +38°C° 0 mm 4 mps 748 mmHg 19%
13:00 +39°C° 0 mm 5 mps 748 mmHg 18%
14:00 +40°C° 0 mm 5 mps 748 mmHg 18%
15:00 +40°C° 0 mm 5 mps 747 mmHg 17%
16:00 +40°C° 0 mm 5 mps 747 mmHg 17%
17:00 +39°C° 0 mm 5 mps 747 mmHg 17%
18:00 +39°C° 0 mm 6 mps 747 mmHg 18%
19:00 +35°C° 0 mm 5 mps 747 mmHg 19%
20:00 +33°C° 0 mm 4 mps 748 mmHg 20%
21:00 +29°C° 0 mm 4 mps 748 mmHg 21%
22:00 +29°C° 0 mm 3 mps 748 mmHg 22%
23:00 +28°C° 0 mm 3 mps 748 mmHg 24%

Day after tomorrow, 6 July, Monday

Time Temperature Precipitation Wind Pressure Humidity
00:00 +27°C° 0 mm 2 mps 748 mmHg 25%
01:00 +26°C° 0 mm 2 mps 748 mmHg 26%
02:00 +26°C° 0 mm 2 mps 748 mmHg 28%
03:00 +25°C° 0 mm 2 mps 748 mmHg 29%
04:00 +26°C° 0 mm 2 mps 748 mmHg 29%
05:00 +27°C° 0 mm 2 mps 748 mmHg 29%
06:00 +28°C° 0 mm 1 mps 748 mmHg 29%
07:00 +30°C° 0 mm 1 mps 748 mmHg 26%
08:00 +32°C° 0 mm 1 mps 748 mmHg 22%
09:00 +34°C° 0 mm 1 mps 748 mmHg 18%
10:00 +37°C° 0 mm 2 mps 748 mmHg 17%
11:00 +38°C° 0 mm 3 mps 748 mmHg 15%
12:00 +41°C° 0 mm 4 mps 747 mmHg 14%
13:00 +41°C° 0 mm 4 mps 747 mmHg 14%
14:00 +42°C° 0 mm 5 mps 747 mmHg 14%
15:00 +42°C° 0 mm 5 mps 746 mmHg 14%
16:00 +42°C° 0 mm 5 mps 746 mmHg 15%
17:00 +41°C° 0 mm 5 mps 746 mmHg 16%
18:00 +40°C° 0 mm 5 mps 746 mmHg 17%
19:00 +37°C° 0 mm 5 mps 747 mmHg 19%
20:00 +35°C° 0 mm 5 mps 747 mmHg 21%
21:00 +33°C° 0 mm 5 mps 748 mmHg 24%
22:00 +32°C° 0 mm 4 mps 748 mmHg 25%
23:00 +30°C° 0 mm 3 mps 748 mmHg 27%

7 July, Tuesday

Time Temperature Precipitation Wind Pressure Humidity
00:00 +29°C° 0 mm 3 mps 747 mmHg 29%
01:00 +28°C° 0 mm 3 mps 747 mmHg 31%
02:00 +28°C° 0 mm 2 mps 747 mmHg 32%
03:00 +27°C° 0 mm 2 mps 747 mmHg 34%
04:00 +28°C° 0 mm 2 mps 747 mmHg 33%
05:00 +28°C° 0 mm 2 mps 747 mmHg 33%
06:00 +29°C° 0 mm 2 mps 747 mmHg 32%
07:00 +31°C° 0 mm 2 mps 747 mmHg 28%
08:00 +35°C° 0 mm 2 mps 747 mmHg 24%
09:00 +37°C° 0 mm 3 mps 747 mmHg 19%
10:00 +40°C° 0 mm 4 mps 747 mmHg 18%
11:00 +41°C° 0 mm 4 mps 747 mmHg 16%
12:00 +42°C° 0 mm 5 mps 746 mmHg 14%
13:00 +43°C° 0 mm 5 mps 746 mmHg 14%
14:00 +43°C° 0 mm 5 mps 745 mmHg 14%
15:00 +43°C° 0 mm 5 mps 745 mmHg 14%
16:00 +43°C° 0 mm 5 mps 745 mmHg 15%
17:00 +42°C° 0 mm 5 mps 745 mmHg 16%
18:00 +41°C° 0 mm 4 mps 745 mmHg 17%
19:00 +39°C° 0 mm 5 mps 745 mmHg 20%
20:00 +35°C° 0 mm 5 mps 746 mmHg 23%
21:00 +33°C° 0 mm 5 mps 746 mmHg 26%
22:00 +30°C° 0 mm 4 mps 746 mmHg 29%
23:00 +29°C° 0 mm 3 mps 746 mmHg 33%

8 July, Wednesday

Time Temperature Precipitation Wind Pressure Humidity
00:00 +28°C° 0 mm 2 mps 746 mmHg 36%
01:00 +27°C° 0 mm 2 mps 746 mmHg 37%
02:00 +27°C° 0 mm 1 mps 746 mmHg 38%
03:00 +27°C° 0 mm 1 mps 746 mmHg 39%
04:00 +28°C° 0 mm 1 mps 746 mmHg 38%
05:00 +29°C° 0 mm 1 mps 746 mmHg 37%
06:00 +27°C° 0 mm 0 mps 746 mmHg 36%
07:00 +31°C° 0 mm 1 mps 746 mmHg 31%
08:00 +33°C° 0 mm 1 mps 746 mmHg 27%
09:00 +35°C° 0 mm 1 mps 745 mmHg 22%
10:00 +37°C° 0 mm 2 mps 745 mmHg 21%
11:00 +39°C° 0 mm 2 mps 745 mmHg 19%
12:00 +40°C° 0 mm 2 mps 745 mmHg 18%
13:00 +42°C° 0 mm 3 mps 744 mmHg 17%
14:00 +42°C° 0 mm 3 mps 744 mmHg 17%
15:00 +43°C° 0 mm 3 mps 744 mmHg 16%
16:00 +43°C° 0 mm 3 mps 743 mmHg 17%
17:00 +42°C° 0 mm 3 mps 743 mmHg 19%
18:00 +42°C° 0 mm 3 mps 743 mmHg 20%
19:00 +39°C° 0 mm 3 mps 744 mmHg 22%
20:00 +36°C° 0 mm 3 mps 744 mmHg 25%
21:00 +34°C° 0 mm 3 mps 745 mmHg 27%
22:00 +33°C° 0 mm 3 mps 745 mmHg 29%
23:00 +31°C° 0 mm 2 mps 745 mmHg 32%

9 July, Thursday

Time Temperature Precipitation Wind Pressure Humidity
00:00 +30°C° 0 mm 1 mps 746 mmHg 34%
01:00 +29°C° 0.1 mm 1 mps 746 mmHg 37%
02:00 +29°C° 0.1 mm 1 mps 746 mmHg 40%
03:00 +29°C° 0.1 mm 1 mps 746 mmHg 43%
04:00 +29°C° 0 mm 2 mps 746 mmHg 45%
05:00 +30°C° 0 mm 4 mps 746 mmHg 48%
06:00 +30°C° 0 mm 5 mps 746 mmHg 50%
07:00 +33°C° 0 mm 6 mps 746 mmHg 46%
08:00 +34°C° 0 mm 6 mps 746 mmHg 41%
09:00 +36°C° 0 mm 7 mps 746 mmHg 37%
10:00 +38°C° 0 mm 6 mps 746 mmHg 34%
11:00 +39°C° 0 mm 5 mps 746 mmHg 31%
12:00 +40°C° 0 mm 4 mps 746 mmHg 28%
13:00 +41°C° 0 mm 4 mps 746 mmHg 27%
14:00 +40°C° 0 mm 3 mps 745 mmHg 25%
15:00 +41°C° 0 mm 2 mps 745 mmHg 24%
16:00 +40°C° 0 mm 3 mps 745 mmHg 25%
17:00 +39°C° 0 mm 3 mps 746 mmHg 27%
18:00 +40°C° 0 mm 4 mps 746 mmHg 29%
19:00 +36°C° 0 mm 4 mps 746 mmHg 33%
20:00 +34°C° 0 mm 3 mps 747 mmHg 37%
21:00 +31°C° 0 mm 3 mps 748 mmHg 41%
22:00 +32°C° 0.2 mm 4 mps 748 mmHg 45%
23:00 +30°C° 0.2 mm 4 mps 748 mmHg 48%
Show more